Location: Bathurst
(33.4193°S, 149.5775°E)
Time: 02:38:41
(UTC+11:00)

Hubble Space Telescope - Visible Passes

Search period start: 06 October 2022 00:00
Search period end: 16 October 2022 00:00
Orbit: 531 x 535 km, 28.5° (Epoch: 04 October)

Date Brightness Start Highest point End Pass type
(mag) Time Alt. Az. Time Alt. Az. Time Alt. Az.
06 Oct 2.9 04:14:54 21° ENE 04:14:54 21° ENE 04:16:30 10° ENE visible
06 Oct 1.7 05:50:08 13° WNW 05:53:23 34° N 05:57:09 10° NE visible
07 Oct 3.3 04:03:20 15° ENE 04:03:20 15° ENE 04:04:12 10° ENE visible
07 Oct 1.8 05:38:34 17° WNW 05:41:03 31° NNW 05:44:43 10° NE visible
08 Oct 3.8 03:51:49 10° ENE 03:51:49 10° ENE 03:51:53 10° ENE visible
08 Oct 1.9 05:27:04 21° NW 05:28:42 27° NNW 05:32:15 10° NE visible
09 Oct 2.0 05:15:37 23° NNW 05:16:21 24° NNW 05:19:42 10° NE visible
10 Oct 2.3 05:04:16 21° NNW 05:04:16 21° NNW 05:07:06 10° NNE visible
11 Oct 2.8 04:53:02 15° N 04:53:02 15° N 04:54:24 10° NNE visible
15 Oct 3.2 21:03:46 10° NNW 21:04:18 12° NNW 21:04:18 12° NNW visible
